• In Romania
  • List of Countries
  • For 7 days
  • Water Temperature
  • Satellite Maps
  • Weather Map
  • Weather Widgets
  • user-avatar
    Login

    Hourly Weather Quito

    Today, 26 June, Monday

    Time Temperature Precipitation Wind Pressure Humidity
    00:00 +11°C° 0 mm 1 mps 621 mmHg 57%
    01:00 +11°C° 0 mm 1 mps 620 mmHg 62%
    02:00 +10°C° 0 mm 1 mps 620 mmHg 63%
    03:00 +10°C° 0 mm 1 mps 620 mmHg 65%
    04:00 +10°C° 0 mm 1 mps 620 mmHg 67%
    05:00 +11°C° 0 mm 1 mps 621 mmHg 65%
    06:00 +11°C° 0 mm 1 mps 621 mmHg 63%
    07:00 +12°C° 0 mm 1 mps 622 mmHg 61%
    08:00 +16°C° 0 mm 2 mps 623 mmHg 52%
    09:00 +20°C° 0 mm 2 mps 625 mmHg 42%
    10:00 +25°C° 0 mm 3 mps 626 mmHg 32%
    11:00 +26°C° 0 mm 3 mps 626 mmHg 29%
    12:00 +27°C° 0 mm 3 mps 626 mmHg 27%
    13:00 +28°C° 0 mm 3 mps 626 mmHg 24%
    14:00 +28°C° 0 mm 2 mps 625 mmHg 24%
    15:00 +28°C° 0 mm 2 mps 625 mmHg 24%
    16:00 +27°C° 0 mm 2 mps 624 mmHg 24%
    17:00 +24°C° 0 mm 2 mps 623 mmHg 30%
    18:00 +20°C° 0 mm 2 mps 623 mmHg 37%
    19:00 +17°C° 0 mm 2 mps 622 mmHg 43%
    20:00 +16°C° 0 mm 1 mps 622 mmHg 45%
    21:00 +16°C° 0 mm 1 mps 622 mmHg 47%
    22:00 +15°C° 0 mm 1 mps 623 mmHg 48%
    23:00 +15°C° 0 mm 1 mps 623 mmHg 51%

    Tomorrow, 27 June, Tuesday

    Time Temperature Precipitation Wind Pressure Humidity
    00:00 +15°C° 0 mm 1 mps 622 mmHg 53%
    01:00 +14°C° 0 mm 1 mps 622 mmHg 56%
    02:00 +14°C° 0 mm 1 mps 622 mmHg 57%
    03:00 +13°C° 0 mm 1 mps 622 mmHg 59%
    04:00 +13°C° 0 mm 1 mps 622 mmHg 60%
    05:00 +13°C° 0 mm 1 mps 622 mmHg 60%
    06:00 +13°C° 0 mm 1 mps 622 mmHg 60%
    07:00 +13°C° 0 mm 1 mps 623 mmHg 61%
    08:00 +18°C° 0 mm 1 mps 624 mmHg 51%
    09:00 +20°C° 0 mm 2 mps 625 mmHg 40%
    10:00 +25°C° 0 mm 2 mps 627 mmHg 30%
    11:00 +26°C° 0 mm 2 mps 627 mmHg 27%
    12:00 +28°C° 0 mm 2 mps 627 mmHg 24%
    13:00 +29°C° 0 mm 1 mps 626 mmHg 21%
    14:00 +29°C° 0 mm 1 mps 626 mmHg 22%
    15:00 +28°C° 0 mm 1 mps 625 mmHg 22%
    16:00 +28°C° 0 mm 2 mps 625 mmHg 22%
    17:00 +25°C° 0 mm 2 mps 624 mmHg 28%
    18:00 +20°C° 0 mm 2 mps 623 mmHg 35%
    19:00 +17°C° 0 mm 2 mps 622 mmHg 41%
    20:00 +16°C° 0 mm 2 mps 622 mmHg 43%
    21:00 +15°C° 0 mm 1 mps 622 mmHg 45%
    22:00 +15°C° 0 mm 1 mps 623 mmHg 47%
    23:00 +14°C° 0 mm 1 mps 622 mmHg 50%

    Day after tomorrow, 28 June, Wednesday

    Time Temperature Precipitation Wind Pressure Humidity
    00:00 +13°C° 0 mm 1 mps 622 mmHg 53%
    01:00 +12°C° 0 mm 1 mps 621 mmHg 56%
    02:00 +12°C° 0 mm 1 mps 621 mmHg 57%
    03:00 +12°C° 0 mm 1 mps 621 mmHg 58%
    04:00 +11°C° 0 mm 1 mps 621 mmHg 60%
    05:00 +12°C° 0 mm 1 mps 621 mmHg 60%
    06:00 +12°C° 0 mm 1 mps 622 mmHg 60%
    07:00 +13°C° 0 mm 1 mps 623 mmHg 60%
    08:00 +16°C° 0 mm 1 mps 624 mmHg 50%
    09:00 +20°C° 0 mm 2 mps 625 mmHg 39%
    10:00 +24°C° 0 mm 3 mps 627 mmHg 28%
    11:00 +25°C° 0 mm 2 mps 626 mmHg 26%
    12:00 +27°C° 0 mm 2 mps 626 mmHg 24%
    13:00 +28°C° 0 mm 2 mps 626 mmHg 21%
    14:00 +28°C° 0 mm 2 mps 625 mmHg 21%
    15:00 +27°C° 0 mm 2 mps 625 mmHg 21%
    16:00 +27°C° 0 mm 2 mps 624 mmHg 21%
    17:00 +24°C° 0 mm 2 mps 623 mmHg 29%
    18:00 +19°C° 0 mm 2 mps 622 mmHg 36%
    19:00 +16°C° 0 mm 2 mps 622 mmHg 43%
    20:00 +15°C° 0 mm 2 mps 622 mmHg 43%
    21:00 +15°C° 0 mm 2 mps 622 mmHg 43%
    22:00 +15°C° 0 mm 2 mps 623 mmHg 43%
    23:00 +14°C° 0 mm 1 mps 622 mmHg 46%

    29 June, Thursday

    Time Temperature Precipitation Wind Pressure Humidity
    00:00 +13°C° 0 mm 1 mps 621 mmHg 50%
    01:00 +12°C° 0 mm 1 mps 621 mmHg 54%
    02:00 +11°C° 0 mm 1 mps 621 mmHg 55%
    03:00 +11°C° 0 mm 1 mps 621 mmHg 57%
    04:00 +10°C° 0 mm 1 mps 620 mmHg 59%
    05:00 +11°C° 0 mm 1 mps 621 mmHg 58%
    06:00 +12°C° 0 mm 1 mps 622 mmHg 57%
    07:00 +12°C° 0 mm 1 mps 623 mmHg 56%
    08:00 +16°C° 0 mm 2 mps 624 mmHg 45%
    09:00 +19°C° 0 mm 3 mps 625 mmHg 35%
    10:00 +22°C° 0 mm 4 mps 627 mmHg 25%
    11:00 +25°C° 0 mm 3 mps 626 mmHg 23%
    12:00 +26°C° 0 mm 3 mps 626 mmHg 21%
    13:00 +27°C° 0 mm 3 mps 626 mmHg 19%
    14:00 +27°C° 0 mm 2 mps 625 mmHg 19%
    15:00 +27°C° 0 mm 2 mps 625 mmHg 19%
    16:00 +27°C° 0 mm 2 mps 625 mmHg 19%
    17:00 +23°C° 0 mm 2 mps 624 mmHg 25%
    18:00 +19°C° 0 mm 2 mps 623 mmHg 30%
    19:00 +15°C° 0 mm 2 mps 622 mmHg 36%
    20:00 +14°C° 0 mm 2 mps 623 mmHg 37%
    21:00 +14°C° 0 mm 2 mps 623 mmHg 39%
    22:00 +13°C° 0 mm 2 mps 623 mmHg 40%
    23:00 +12°C° 0 mm 1 mps 623 mmHg 41%

    30 June, Friday

    Time Temperature Precipitation Wind Pressure Humidity
    00:00 +11°C° 0 mm 1 mps 622 mmHg 43%
    01:00 +11°C° 0 mm 1 mps 622 mmHg 45%
    02:00 +10°C° 0 mm 1 mps 622 mmHg 47%
    03:00 +10°C° 0 mm 1 mps 621 mmHg 49%
    04:00 +9°C° 0 mm 1 mps 621 mmHg 52%
    05:00 +10°C° 0 mm 1 mps 622 mmHg 51%
    06:00 +10°C° 0 mm 1 mps 623 mmHg 51%
    07:00 +11°C° 0 mm 1 mps 623 mmHg 50%
    08:00 +15°C° 0 mm 2 mps 625 mmHg 41%
    09:00 +19°C° 0 mm 2 mps 626 mmHg 32%
    10:00 +22°C° 0 mm 3 mps 627 mmHg 22%
    11:00 +25°C° 0 mm 3 mps 627 mmHg 21%
    12:00 +26°C° 0 mm 3 mps 626 mmHg 19%
    13:00 +27°C° 0 mm 3 mps 626 mmHg 17%
    14:00 +27°C° 0 mm 2 mps 626 mmHg 17%
    15:00 +27°C° 0 mm 2 mps 625 mmHg 17%
    16:00 +26°C° 0 mm 2 mps 625 mmHg 17%
    17:00 +23°C° 0 mm 2 mps 624 mmHg 23%
    18:00 +18°C° 0 mm 2 mps 623 mmHg 29%
    19:00 +14°C° 0 mm 2 mps 622 mmHg 35%
    20:00 +14°C° 0 mm 1 mps 622 mmHg 37%
    21:00 +13°C° 0 mm 1 mps 622 mmHg 40%
    22:00 +12°C° 0 mm 1 mps 622 mmHg 42%
    23:00 +12°C° 0 mm 1 mps 622 mmHg 44%

    1 July, Saturday

    Time Temperature Precipitation Wind Pressure Humidity
    00:00 +11°C° 0 mm 1 mps 622 mmHg 47%
    01:00 +10°C° 0 mm 1 mps 621 mmHg 49%
    02:00 +10°C° 0 mm 1 mps 621 mmHg 52%
    03:00 +9°C° 0 mm 1 mps 621 mmHg 55%
    04:00 +9°C° 0 mm 1 mps 621 mmHg 57%
    05:00 +10°C° 0 mm 1 mps 622 mmHg 57%
    06:00 +10°C° 0 mm 1 mps 622 mmHg 56%
    07:00 +11°C° 0 mm 1 mps 623 mmHg 55%
    08:00 +15°C° 0 mm 2 mps 624 mmHg 46%
    09:00 +18°C° 0 mm 3 mps 625 mmHg 37%
    10:00 +22°C° 0 mm 3 mps 626 mmHg 27%
    11:00 +24°C° 0 mm 3 mps 626 mmHg 24%
    12:00 +26°C° 0 mm 3 mps 626 mmHg 21%
    13:00 +27°C° 0 mm 2 mps 625 mmHg 18%
    14:00 +27°C° 0 mm 2 mps 625 mmHg 18%
    15:00 +26°C° 0 mm 2 mps 625 mmHg 17%
    16:00 +26°C° 0 mm 2 mps 624 mmHg 17%
    17:00 +23°C° 0 mm 2 mps 623 mmHg 24%
    18:00 +18°C° 0 mm 2 mps 623 mmHg 30%
    19:00 +14°C° 0 mm 2 mps 622 mmHg 36%
    20:00 +14°C° 0 mm 2 mps 622 mmHg 39%
    21:00 +13°C° 0 mm 2 mps 622 mmHg 42%
    22:00 +13°C° 0 mm 2 mps 622 mmHg 45%
    23:00 +12°C° 0 mm 1 mps 622 mmHg 49%
    Show more